Location: Peebles
(55.6412°N, 3.1714°W)
Time: 02:40:13
(UTC+01:00)

FENGYUN 1C DEB - Pass Details

Date: 11 July 2022
Orbit: 835 x 1174 km, 99.6° (Epoch: 12 August)

Event Time Altitude Azimuth Distance (km) Brightness Sun altitude
Rises 00:15:03 0° 222° (SW) 3,844 ? -11.1°
Reaches altitude 10° 00:19:08 10° 246° (WSW) 2,821 ? -11.2°
Maximum altitude 00:22:17 14° 277° (W) 2,478 ? -11.3°
Drops below altitude 10° 00:25:21 10° 307° (NW) 2,712 ? -11.4°
Sets 00:29:09 0° 332° (NNW) 3,591 ? -11.5°
